カタログに戻る

STARLINK-32940

運用中通信VLEO
NORAD 63568·PAYLOAD·🇺🇸 United States

打ち上げ Apr 13, 2025 から Cape Canaveral Space Force Station

Loading…

次のパス (今後24時間)

TLE

最新Source: CelesTrak SupGP

元期: Sep 14, 2026, 14:51 UTC

1 63568C 25075W   26257.61923611  .00023607  00000+0  85481-3 0  2571
2 63568  42.9999 283.5721 0001383 276.2210  39.6889 15.27575539    18

AllMySatでSTARLINK-32940をリアルタイム追跡

Download on the App Store